Location: Newark
(40.4455°N, 118.4031°W)
Time: 17:02:37
(UTC+00:00)

Envisat - Visible Passes

Search period start: 21 November 2019 00:00
Search period end: 01 December 2019 00:00
Orbit: 764 x 766 km, 98.1° (Epoch: 21 November)

Date Brightness Start Highest point End Pass type
(mag) Time Alt. Az. Time Alt. Az. Time Alt. Az.
21 Nov 3.8 01:01:29 10° SE 01:05:48 29° ENE 01:10:07 10° N visible
21 Nov 4.7 02:40:10 10° SSW 02:44:42 33° W 02:49:16 10° NNW visible
22 Nov 3.2 02:02:45 10° S 02:07:49 75° WSW 02:12:54 10° NNW visible
22 Nov 4.7 14:12:16 10° NNE 14:17:02 39° E 14:21:46 10° SSE visible
23 Nov 3.2 01:26:15 10° SE 01:31:07 49° ENE 01:36:01 10° N visible
23 Nov 5.6 03:06:52 10° SW 03:10:24 19° W 03:13:56 10° NW visible
23 Nov 6.0 13:36:37 10° NE 13:40:00 18° E 13:43:21 10° SE visible
24 Nov 4.3 02:28:35 10° SSW 02:33:22 41° W 02:38:11 10° NNW visible
25 Nov 2.9 01:51:28 10° SSE 01:56:32 87° ENE 02:01:39 10° NNW visible
25 Nov 5.1 14:01:12 10° NE 14:05:42 31° E 14:10:10 10° SSE visible
26 Nov 3.4 01:15:13 10° SE 01:19:54 39° ENE 01:24:36 10° N visible
26 Nov 5.3 02:55:00 10° SSW 02:59:01 24° W 03:03:05 10° NW visible
26 Nov 6.1 13:26:03 10° ENE 13:28:36 14° E 13:31:08 10° ESE visible
27 Nov 3.8 02:17:07 10° S 02:22:03 53° W 02:27:02 10° NNW visible
28 Nov 2.9 01:40:15 10° SSE 01:45:17 69° ENE 01:50:21 10° N visible
28 Nov 6.0 03:22:24 10° WSW 03:24:47 13° W 03:27:10 10° WNW visible
28 Nov 5.5 13:50:13 10° NE 13:54:21 24° E 13:58:27 10° SSE visible
29 Nov 3.7 01:04:16 10° SE 01:08:42 31° ENE 01:13:08 10° N visible
29 Nov 4.9 02:43:15 10° SSW 02:47:40 30° W 02:52:07 10° NW visible
29 Nov 6.5 13:16:20 10° ENE 13:17:11 10° E 13:18:02 10° E visible
30 Nov 3.3 02:05:43 10° S 02:10:45 68° WSW 02:15:50 10° NNW visible
30 Nov 4.4 14:15:09 10° NNE 14:20:00 43° E 14:24:48 10° S visible
